Year,Month,Day,Hour,Minute,Value (Times are PST for temperature in C)
2016,07,15,00,00,14.10
2016,07,15,00,01,14.10
2016,07,15,00,02,14.10
2016,07,15,00,03,14.10
2016,07,15,00,04,14.10
2016,07,15,00,05,14.10
2016,07,15,00,06,14.10
2016,07,15,00,07,14.10
2016,07,15,00,08,14.10
2016,07,15,00,09,14.10
2016,07,15,00,10,14.00
2016,07,15,00,11,14.00
2016,07,15,00,12,14.00
2016,07,15,00,13,14.00
2016,07,15,00,14,14.00
2016,07,15,00,15,14.00
2016,07,15,00,16,14.00
2016,07,15,00,17,14.00
2016,07,15,00,18,13.90
2016,07,15,00,19,13.90
2016,07,15,00,20,13.90
2016,07,15,00,21,13.90
2016,07,15,00,22,13.90
2016,07,15,00,23,13.90
2016,07,15,00,24,13.80
2016,07,15,00,25,13.80
2016,07,15,00,26,13.80
2016,07,15,00,27,13.80
2016,07,15,00,28,13.80
2016,07,15,00,29,13.80
2016,07,15,00,30,13.80
2016,07,15,00,31,13.80
2016,07,15,00,32,13.70
2016,07,15,00,33,13.70
2016,07,15,00,34,13.70
2016,07,15,00,35,13.70
2016,07,15,00,36,13.70
2016,07,15,00,37,13.70
2016,07,15,00,38,13.70
2016,07,15,00,39,13.70
2016,07,15,00,40,13.70
2016,07,15,00,41,13.60
2016,07,15,00,42,13.60
2016,07,15,00,43,13.60
2016,07,15,00,44,13.60
2016,07,15,00,45,13.60
2016,07,15,00,46,13.60
2016,07,15,00,47,13.60
2016,07,15,00,48,13.50
2016,07,15,00,49,13.50
2016,07,15,00,50,13.50
2016,07,15,00,51,13.40
2016,07,15,00,52,13.40
2016,07,15,00,53,13.40
2016,07,15,00,54,13.40
2016,07,15,00,55,13.40
2016,07,15,00,56,13.30
2016,07,15,00,57,13.30
2016,07,15,00,58,13.30
2016,07,15,00,59,13.30
2016,07,15,01,00,13.30
2016,07,15,01,01,13.30
2016,07,15,01,02,13.30
2016,07,15,01,03,13.30
2016,07,15,01,04,13.30
2016,07,15,01,05,13.30
2016,07,15,01,06,13.30
2016,07,15,01,07,13.30
2016,07,15,01,08,13.30
2016,07,15,01,09,13.30
2016,07,15,01,10,13.30
2016,07,15,01,11,13.30
2016,07,15,01,12,13.40
2016,07,15,01,13,13.40
2016,07,15,01,14,13.30
2016,07,15,01,15,13.30
2016,07,15,01,16,13.30
2016,07,15,01,17,13.40
2016,07,15,01,18,13.30
2016,07,15,01,19,13.30
2016,07,15,01,20,13.40
2016,07,15,01,21,13.40
2016,07,15,01,22,13.40
2016,07,15,01,23,13.40
2016,07,15,01,24,13.40
2016,07,15,01,25,13.40
2016,07,15,01,26,13.40
2016,07,15,01,27,13.40
2016,07,15,01,28,13.40
2016,07,15,01,29,13.40
2016,07,15,01,30,13.40
2016,07,15,01,31,13.40
2016,07,15,01,32,13.40
2016,07,15,01,33,13.30
2016,07,15,01,34,13.30
2016,07,15,01,35,13.30
2016,07,15,01,36,13.30
2016,07,15,01,37,13.30
2016,07,15,01,38,13.30
2016,07,15,01,39,13.30
2016,07,15,01,40,13.30
2016,07,15,01,41,13.30
2016,07,15,01,42,13.30
2016,07,15,01,43,13.30
2016,07,15,01,44,13.30
2016,07,15,01,45,13.30
2016,07,15,01,46,13.30
2016,07,15,01,47,13.20
2016,07,15,01,48,13.20
2016,07,15,01,49,13.20
2016,07,15,01,50,13.20
2016,07,15,01,51,13.20
2016,07,15,01,52,13.20
2016,07,15,01,53,13.20
2016,07,15,01,54,13.10
2016,07,15,01,55,13.10
2016,07,15,01,56,13.00
2016,07,15,01,57,13.00
2016,07,15,01,58,13.00
2016,07,15,01,59,12.90
2016,07,15,02,00,12.90
2016,07,15,02,01,12.90
2016,07,15,02,02,12.80
2016,07,15,02,03,12.80
2016,07,15,02,04,12.80
2016,07,15,02,05,12.70
2016,07,15,02,06,12.70
2016,07,15,02,07,12.70
2016,07,15,02,08,12.70
2016,07,15,02,09,12.70
2016,07,15,02,10,12.70
2016,07,15,02,11,12.60
2016,07,15,02,12,12.60
2016,07,15,02,13,12.60
2016,07,15,02,14,12.60
2016,07,15,02,15,12.60
2016,07,15,02,16,12.60
2016,07,15,02,17,12.50
2016,07,15,02,18,12.50
2016,07,15,02,19,12.50
2016,07,15,02,20,12.40
2016,07,15,02,21,12.40
2016,07,15,02,22,12.40
2016,07,15,02,23,12.40
2016,07,15,02,24,12.40
2016,07,15,02,25,12.40
2016,07,15,02,26,12.40
2016,07,15,02,27,12.40
2016,07,15,02,28,12.30
2016,07,15,02,29,12.30
2016,07,15,02,30,12.30
2016,07,15,02,31,12.30
2016,07,15,02,32,12.30
2016,07,15,02,33,12.30
2016,07,15,02,34,12.30
2016,07,15,02,35,12.20
2016,07,15,02,36,12.20
2016,07,15,02,37,12.20
2016,07,15,02,38,12.20
2016,07,15,02,39,12.20
2016,07,15,02,40,12.20
2016,07,15,02,41,12.20
2016,07,15,02,42,12.20
2016,07,15,02,43,12.20
2016,07,15,02,44,12.10
2016,07,15,02,45,12.10
2016,07,15,02,46,12.10
2016,07,15,02,47,12.10
2016,07,15,02,48,12.10
2016,07,15,02,49,12.10
2016,07,15,02,50,12.00
2016,07,15,02,51,12.00
2016,07,15,02,52,11.90
2016,07,15,02,53,11.90
2016,07,15,02,54,11.90
2016,07,15,02,55,11.90
2016,07,15,02,56,11.80
2016,07,15,02,57,11.80
2016,07,15,02,58,11.80
2016,07,15,02,59,11.80
2016,07,15,03,00,11.80
2016,07,15,03,01,11.80
2016,07,15,03,02,11.80
2016,07,15,03,03,11.80
2016,07,15,03,04,11.70
2016,07,15,03,05,11.70
2016,07,15,03,06,11.70
2016,07,15,03,07,11.70
2016,07,15,03,08,11.70
2016,07,15,03,09,11.70
2016,07,15,03,10,11.70
2016,07,15,03,11,11.70
2016,07,15,03,12,11.70
2016,07,15,03,13,11.70
2016,07,15,03,14,11.70
2016,07,15,03,15,11.70
2016,07,15,03,16,11.70
2016,07,15,03,17,11.70
2016,07,15,03,18,11.70
2016,07,15,03,19,11.70
2016,07,15,03,20,11.70
2016,07,15,03,21,11.70
2016,07,15,03,22,11.80
2016,07,15,03,23,11.80
2016,07,15,03,24,11.80
2016,07,15,03,25,11.80
2016,07,15,03,26,11.80
2016,07,15,03,27,11.70
2016,07,15,03,28,11.70
2016,07,15,03,29,11.70
2016,07,15,03,30,11.70
2016,07,15,03,31,11.70
2016,07,15,03,32,11.70
2016,07,15,03,33,11.70
2016,07,15,03,34,11.60
2016,07,15,03,35,11.60
2016,07,15,03,36,11.60
2016,07,15,03,37,11.60
2016,07,15,03,38,11.60
2016,07,15,03,39,11.60
2016,07,15,03,40,11.60
2016,07,15,03,41,11.60
2016,07,15,03,42,11.60
2016,07,15,03,43,11.50
2016,07,15,03,44,11.50
2016,07,15,03,45,11.50
2016,07,15,03,46,11.50
2016,07,15,03,47,11.50
2016,07,15,03,48,11.50
2016,07,15,03,49,11.50
2016,07,15,03,50,11.50
2016,07,15,03,51,11.50
2016,07,15,03,52,11.40
2016,07,15,03,53,11.40
2016,07,15,03,54,11.40
2016,07,15,03,55,11.40
2016,07,15,03,56,11.40
2016,07,15,03,57,11.40
2016,07,15,03,58,11.40
2016,07,15,03,59,11.40
2016,07,15,04,00,11.40
2016,07,15,04,01,11.40
2016,07,15,04,02,11.40
2016,07,15,04,03,11.40
2016,07,15,04,04,11.40
2016,07,15,04,05,11.40
2016,07,15,04,06,11.40
2016,07,15,04,07,11.40
2016,07,15,04,08,11.40
2016,07,15,04,09,11.40
2016,07,15,04,10,11.40
2016,07,15,04,11,11.30
2016,07,15,04,12,11.30
2016,07,15,04,13,11.30
2016,07,15,04,14,11.30
2016,07,15,04,15,11.30
2016,07,15,04,16,11.30
2016,07,15,04,17,11.30
2016,07,15,04,18,11.30
2016,07,15,04,19,11.30
2016,07,15,04,20,11.30
2016,07,15,04,21,11.30
2016,07,15,04,22,11.30
2016,07,15,04,23,11.20
2016,07,15,04,24,11.20
2016,07,15,04,25,11.20
2016,07,15,04,26,11.20
2016,07,15,04,27,11.20
2016,07,15,04,28,11.20
2016,07,15,04,29,11.20
2016,07,15,04,30,11.10
2016,07,15,04,31,11.10
2016,07,15,04,32,11.10
2016,07,15,04,33,11.10
2016,07,15,04,34,11.10
2016,07,15,04,35,11.10
2016,07,15,04,36,11.10
2016,07,15,04,37,11.10
2016,07,15,04,38,11.10
2016,07,15,04,39,11.10
2016,07,15,04,40,11.10
2016,07,15,04,41,11.10
2016,07,15,04,42,11.10
2016,07,15,04,43,11.10
2016,07,15,04,44,11.10
2016,07,15,04,45,11.10
2016,07,15,04,46,11.10
2016,07,15,04,47,11.10
2016,07,15,04,48,11.10
2016,07,15,04,49,11.10
2016,07,15,04,50,11.10
2016,07,15,04,51,11.10
2016,07,15,04,52,11.20
2016,07,15,04,53,11.20
2016,07,15,04,54,11.20
2016,07,15,04,55,11.20
2016,07,15,04,56,11.30
2016,07,15,04,57,11.30
2016,07,15,04,58,11.30
2016,07,15,04,59,11.30
2016,07,15,05,00,11.30
2016,07,15,05,01,11.40
2016,07,15,05,02,11.40
2016,07,15,05,03,11.40
2016,07,15,05,04,11.40
2016,07,15,05,05,11.40
2016,07,15,05,06,11.40
2016,07,15,05,07,11.40
2016,07,15,05,08,11.40
2016,07,15,05,09,11.50
2016,07,15,05,10,11.50
2016,07,15,05,11,11.50
2016,07,15,05,12,11.60
2016,07,15,05,13,11.60
2016,07,15,05,14,11.60
2016,07,15,05,15,11.60
2016,07,15,05,16,11.60
2016,07,15,05,17,11.60
2016,07,15,05,18,11.60
2016,07,15,05,19,11.70
2016,07,15,05,20,11.70
2016,07,15,05,21,11.70
2016,07,15,05,22,11.70
2016,07,15,05,23,11.70
2016,07,15,05,24,11.70
2016,07,15,05,25,11.70
2016,07,15,05,26,11.70
2016,07,15,05,27,11.70
2016,07,15,05,28,11.70
2016,07,15,05,29,11.70
2016,07,15,05,30,11.80
2016,07,15,05,31,11.80
2016,07,15,05,32,11.80
2016,07,15,05,33,11.80
2016,07,15,05,34,11.80
2016,07,15,05,35,11.80
2016,07,15,05,36,11.80
2016,07,15,05,37,11.80
2016,07,15,05,38,11.80
2016,07,15,05,39,11.80
2016,07,15,05,40,11.80
2016,07,15,05,41,11.80
2016,07,15,05,42,11.80
2016,07,15,05,43,11.80
2016,07,15,05,44,11.80
2016,07,15,05,45,11.80
2016,07,15,05,46,11.80
2016,07,15,05,47,11.90
2016,07,15,05,48,11.90
2016,07,15,05,49,11.90
2016,07,15,05,50,11.90
2016,07,15,05,51,11.90
2016,07,15,05,52,12.00
2016,07,15,05,53,12.00
2016,07,15,05,54,12.00
2016,07,15,05,55,12.00
2016,07,15,05,56,12.00
2016,07,15,05,57,12.00
2016,07,15,05,58,12.00
2016,07,15,05,59,12.10
2016,07,15,06,00,12.10
2016,07,15,06,01,12.10
2016,07,15,06,02,12.10
2016,07,15,06,03,12.10
2016,07,15,06,04,12.10
2016,07,15,06,05,12.10
2016,07,15,06,06,12.10
2016,07,15,06,07,12.10
2016,07,15,06,08,12.20
2016,07,15,06,09,12.20
2016,07,15,06,10,12.20
2016,07,15,06,11,12.20
2016,07,15,06,12,12.20
2016,07,15,06,13,12.20
2016,07,15,06,14,12.20
2016,07,15,06,15,12.20
2016,07,15,06,16,12.30
2016,07,15,06,17,12.30
2016,07,15,06,18,12.30
2016,07,15,06,19,12.30
2016,07,15,06,20,12.30
2016,07,15,06,21,12.30
2016,07,15,06,22,12.30
2016,07,15,06,23,12.30
2016,07,15,06,24,12.30
2016,07,15,06,25,12.30
2016,07,15,06,26,12.30
2016,07,15,06,27,12.30
2016,07,15,06,28,12.30
2016,07,15,06,29,12.30
2016,07,15,06,30,12.30
2016,07,15,06,31,12.30
2016,07,15,06,32,12.30
2016,07,15,06,33,12.30
2016,07,15,06,34,12.30
2016,07,15,06,35,12.30
2016,07,15,06,36,12.30
2016,07,15,06,37,12.30
2016,07,15,06,38,12.30
2016,07,15,06,39,12.30
2016,07,15,06,40,12.30
2016,07,15,06,41,12.30
2016,07,15,06,42,12.30
2016,07,15,06,43,12.40
2016,07,15,06,44,12.30
2016,07,15,06,45,12.40
2016,07,15,06,46,12.40
2016,07,15,06,47,12.40
2016,07,15,06,48,12.40
2016,07,15,06,49,12.40
2016,07,15,06,50,12.40
2016,07,15,06,51,12.40
2016,07,15,06,52,12.40
2016,07,15,06,53,12.40
2016,07,15,06,54,12.40
2016,07,15,06,55,12.40
2016,07,15,06,56,12.40
2016,07,15,06,57,12.40
2016,07,15,06,58,12.40
2016,07,15,06,59,12.40
2016,07,15,07,00,12.40
2016,07,15,07,01,12.40
2016,07,15,07,02,12.40
2016,07,15,07,03,12.40
2016,07,15,07,04,12.40
2016,07,15,07,05,12.40
2016,07,15,07,06,12.40
2016,07,15,07,07,12.40
2016,07,15,07,08,12.40
2016,07,15,07,09,12.40
2016,07,15,07,10,12.40
2016,07,15,07,11,12.40
2016,07,15,07,12,12.40
2016,07,15,07,13,12.40
2016,07,15,07,14,12.50
2016,07,15,07,15,12.50
2016,07,15,07,16,12.50
2016,07,15,07,17,12.50
2016,07,15,07,18,12.60
2016,07,15,07,19,12.60
2016,07,15,07,20,12.60
2016,07,15,07,21,12.60
2016,07,15,07,22,12.60
2016,07,15,07,23,12.60
2016,07,15,07,24,12.60
2016,07,15,07,25,12.60
2016,07,15,07,26,12.60
2016,07,15,07,27,12.60
2016,07,15,07,28,12.60
2016,07,15,07,29,12.70
2016,07,15,07,30,12.70
2016,07,15,07,31,12.70
2016,07,15,07,32,12.70
2016,07,15,07,33,12.70
2016,07,15,07,34,12.70
2016,07,15,07,35,12.70
2016,07,15,07,36,12.70
2016,07,15,07,37,12.70
2016,07,15,07,38,12.70
2016,07,15,07,39,12.70
2016,07,15,07,40,12.70
2016,07,15,07,41,12.70
2016,07,15,07,42,12.70
2016,07,15,07,43,12.70
2016,07,15,07,44,12.70
2016,07,15,07,45,12.80
2016,07,15,07,46,12.80
2016,07,15,07,47,12.80
2016,07,15,07,48,12.80
2016,07,15,07,49,12.80
2016,07,15,07,50,12.80
2016,07,15,07,51,12.90
2016,07,15,07,52,12.90
2016,07,15,07,53,12.90
2016,07,15,07,54,12.90
2016,07,15,07,55,12.90
2016,07,15,07,56,13.00
2016,07,15,07,57,13.00
2016,07,15,07,58,13.00
2016,07,15,07,59,13.00
2016,07,15,08,00,13.00
2016,07,15,08,01,13.00
2016,07,15,08,02,13.10
2016,07,15,08,03,13.10
2016,07,15,08,04,13.10
2016,07,15,08,05,13.20
2016,07,15,08,06,13.20
2016,07,15,08,07,13.20
2016,07,15,08,08,13.20
2016,07,15,08,09,13.20
2016,07,15,08,10,13.30
2016,07,15,08,11,13.30
2016,07,15,08,12,13.30
2016,07,15,08,13,13.30
2016,07,15,08,14,13.40
2016,07,15,08,15,13.40
2016,07,15,08,16,13.40
2016,07,15,08,17,13.40
2016,07,15,08,18,13.50
2016,07,15,08,19,13.50
2016,07,15,08,20,13.60
2016,07,15,08,21,13.60
2016,07,15,08,22,13.60
2016,07,15,08,23,13.60
2016,07,15,08,24,13.70
2016,07,15,08,25,13.70
2016,07,15,08,26,13.70
2016,07,15,08,27,13.70
2016,07,15,08,28,13.70
2016,07,15,08,29,13.80
2016,07,15,08,30,13.80
2016,07,15,08,31,13.80
2016,07,15,08,32,13.80
2016,07,15,08,33,13.80
2016,07,15,08,34,13.80
2016,07,15,08,35,13.80
2016,07,15,08,36,13.80
2016,07,15,08,37,13.80
2016,07,15,08,38,13.80
2016,07,15,08,39,13.80
2016,07,15,08,40,13.80
2016,07,15,08,41,13.90
2016,07,15,08,42,13.90
2016,07,15,08,43,13.90
2016,07,15,08,44,13.90
2016,07,15,08,45,13.90
2016,07,15,08,46,14.00
2016,07,15,08,47,14.00
2016,07,15,08,48,14.10
2016,07,15,08,49,14.20
2016,07,15,08,50,14.20
2016,07,15,08,51,14.30
2016,07,15,08,52,14.30
2016,07,15,08,53,14.40
2016,07,15,08,54,14.40
2016,07,15,08,55,14.50
2016,07,15,08,56,14.60
2016,07,15,08,57,14.60
2016,07,15,08,58,14.60
2016,07,15,08,59,14.60
2016,07,15,09,00,14.60
2016,07,15,09,01,14.60
2016,07,15,09,02,14.60
2016,07,15,09,03,14.60
2016,07,15,09,04,14.60
2016,07,15,09,05,14.50
2016,07,15,09,06,14.50
2016,07,15,09,07,14.50
2016,07,15,09,08,14.50
2016,07,15,09,09,14.60
2016,07,15,09,10,14.60
2016,07,15,09,11,14.60
2016,07,15,09,12,14.60
2016,07,15,09,13,14.70
2016,07,15,09,14,14.70
2016,07,15,09,15,14.80
2016,07,15,09,16,14.80
2016,07,15,09,17,14.90
2016,07,15,09,18,15.00
2016,07,15,09,19,15.10
2016,07,15,09,20,15.20
2016,07,15,09,21,15.30
2016,07,15,09,22,15.40
2016,07,15,09,23,15.40
2016,07,15,09,24,15.60
2016,07,15,09,25,15.70
2016,07,15,09,26,15.80
2016,07,15,09,27,15.80
2016,07,15,09,28,15.90
2016,07,15,09,29,15.90
2016,07,15,09,30,15.90
2016,07,15,09,31,16.00
2016,07,15,09,32,16.10
2016,07,15,09,33,16.10
2016,07,15,09,34,16.10
2016,07,15,09,35,16.20
2016,07,15,09,36,16.20
2016,07,15,09,37,16.30
2016,07,15,09,38,16.30
2016,07,15,09,39,16.30
2016,07,15,09,40,16.30
2016,07,15,09,41,16.30
2016,07,15,09,42,16.30
2016,07,15,09,43,16.30
2016,07,15,09,44,16.30
2016,07,15,09,45,16.30
2016,07,15,09,46,16.30
2016,07,15,09,47,16.30
2016,07,15,09,48,16.30
2016,07,15,09,49,16.30
2016,07,15,09,50,16.30
2016,07,15,09,51,16.40
2016,07,15,09,52,16.40
2016,07,15,09,53,16.50
2016,07,15,09,54,16.60
2016,07,15,09,55,16.60
2016,07,15,09,56,16.60
2016,07,15,09,57,16.70
2016,07,15,09,58,16.70
2016,07,15,09,59,16.80
2016,07,15,10,00,16.80
2016,07,15,10,01,16.90
2016,07,15,10,02,16.90
2016,07,15,10,03,16.90
2016,07,15,10,04,17.00
2016,07,15,10,05,17.10
2016,07,15,10,06,17.20
2016,07,15,10,07,17.20
2016,07,15,10,08,17.30
2016,07,15,10,09,17.40
2016,07,15,10,10,17.40
2016,07,15,10,11,17.60
2016,07,15,10,12,17.60
2016,07,15,10,13,17.70
2016,07,15,10,14,17.70
2016,07,15,10,15,17.70
2016,07,15,10,16,17.70
2016,07,15,10,17,17.70
2016,07,15,10,18,17.70
2016,07,15,10,19,17.70
2016,07,15,10,20,17.60
2016,07,15,10,21,17.60
2016,07,15,10,22,17.60
2016,07,15,10,23,17.60
2016,07,15,10,24,17.60
2016,07,15,10,25,17.60
2016,07,15,10,26,17.70
2016,07,15,10,27,17.70
2016,07,15,10,28,17.70
2016,07,15,10,29,17.80
2016,07,15,10,30,17.80
2016,07,15,10,31,17.90
2016,07,15,10,32,18.10
2016,07,15,10,33,18.20
2016,07,15,10,34,18.30
2016,07,15,10,35,18.40
2016,07,15,10,36,18.40
2016,07,15,10,37,18.40
2016,07,15,10,38,18.40
2016,07,15,10,39,18.40
2016,07,15,10,40,18.40
2016,07,15,10,41,18.50
2016,07,15,10,42,18.50
2016,07,15,10,43,18.60
2016,07,15,10,44,18.60
2016,07,15,10,45,18.70
2016,07,15,10,46,18.80
2016,07,15,10,47,18.80
2016,07,15,10,48,18.80
2016,07,15,10,49,18.90
2016,07,15,10,50,19.00
2016,07,15,10,51,19.10
2016,07,15,10,52,19.20
2016,07,15,10,53,19.20
2016,07,15,10,54,19.20
2016,07,15,10,55,19.20
2016,07,15,10,56,19.20
2016,07,15,10,57,19.10
2016,07,15,10,58,19.20
2016,07,15,10,59,19.20
2016,07,15,11,00,19.30
2016,07,15,11,01,19.30
2016,07,15,11,02,19.30
2016,07,15,11,03,19.40
2016,07,15,11,04,19.50
2016,07,15,11,05,19.60
2016,07,15,11,06,19.70
2016,07,15,11,07,19.70
2016,07,15,11,08,19.80
2016,07,15,11,09,19.80
2016,07,15,11,10,19.80
2016,07,15,11,11,19.80
2016,07,15,11,12,19.90
2016,07,15,11,13,19.90
2016,07,15,11,14,20.00
2016,07,15,11,15,19.90
2016,07,15,11,16,19.90
2016,07,15,11,17,20.00
2016,07,15,11,18,20.00
2016,07,15,11,19,20.00
2016,07,15,11,20,20.00
2016,07,15,11,21,19.90
2016,07,15,11,22,19.90
2016,07,15,11,23,19.90
2016,07,15,11,24,20.00
2016,07,15,11,25,20.10
2016,07,15,11,26,20.20
2016,07,15,11,27,20.20
2016,07,15,11,28,20.30
2016,07,15,11,29,20.50
2016,07,15,11,30,20.70
2016,07,15,11,31,20.80
2016,07,15,11,32,20.90
2016,07,15,11,33,21.00
2016,07,15,11,34,21.10
2016,07,15,11,35,21.20
2016,07,15,11,36,21.30
2016,07,15,11,37,21.40
2016,07,15,11,38,21.40
2016,07,15,11,39,21.50
2016,07,15,11,40,21.60
2016,07,15,11,41,21.70
2016,07,15,11,42,21.80
2016,07,15,11,43,21.90
2016,07,15,11,44,22.10
2016,07,15,11,45,22.10
2016,07,15,11,46,22.20
2016,07,15,11,47,22.30
2016,07,15,11,48,22.40
2016,07,15,11,49,22.40
2016,07,15,11,50,22.50
2016,07,15,11,51,22.50
2016,07,15,11,52,22.40
2016,07,15,11,53,22.30
2016,07,15,11,54,22.30
2016,07,15,11,55,22.20
2016,07,15,11,56,22.20
2016,07,15,11,57,22.20
2016,07,15,11,58,22.20
2016,07,15,11,59,22.20
2016,07,15,12,00,22.10
2016,07,15,12,01,22.00
2016,07,15,12,02,21.90
2016,07,15,12,03,21.80
2016,07,15,12,04,21.80
2016,07,15,12,05,21.80
2016,07,15,12,06,21.80
2016,07,15,12,07,21.80
2016,07,15,12,08,21.70
2016,07,15,12,09,21.80
2016,07,15,12,10,21.80
2016,07,15,12,11,21.90
2016,07,15,12,12,21.90
2016,07,15,12,13,21.90
2016,07,15,12,14,21.90
2016,07,15,12,15,21.90
2016,07,15,12,16,21.80
2016,07,15,12,17,21.70
2016,07,15,12,18,21.50
2016,07,15,12,19,21.40
2016,07,15,12,20,21.30
2016,07,15,12,21,21.20
2016,07,15,12,22,21.10
2016,07,15,12,23,21.10
2016,07,15,12,24,21.10
2016,07,15,12,25,21.10
2016,07,15,12,26,21.20
2016,07,15,12,27,21.20
2016,07,15,12,28,21.20
2016,07,15,12,29,21.30
2016,07,15,12,30,21.30
2016,07,15,12,31,21.40
2016,07,15,12,32,21.40
2016,07,15,12,33,21.50
2016,07,15,12,34,21.60
2016,07,15,12,35,21.60
2016,07,15,12,36,21.70
2016,07,15,12,37,21.80
2016,07,15,12,38,22.00
2016,07,15,12,39,22.20
2016,07,15,12,40,22.40
2016,07,15,12,41,22.60
2016,07,15,12,42,22.70
2016,07,15,12,43,22.70
2016,07,15,12,44,22.70
2016,07,15,12,45,22.70
2016,07,15,12,46,22.70
2016,07,15,12,47,22.80
2016,07,15,12,48,22.90
2016,07,15,12,49,23.10
2016,07,15,12,50,23.20
2016,07,15,12,51,23.20
2016,07,15,12,52,23.20
2016,07,15,12,53,23.20
2016,07,15,12,54,23.20
2016,07,15,12,55,23.20
2016,07,15,12,56,23.20
2016,07,15,12,57,23.30
2016,07,15,12,58,23.20
2016,07,15,12,59,23.20
2016,07,15,13,00,23.10
2016,07,15,13,01,23.10
2016,07,15,13,02,23.10
2016,07,15,13,03,23.10
2016,07,15,13,04,23.10
2016,07,15,13,05,23.10
2016,07,15,13,06,23.10
2016,07,15,13,07,23.10
2016,07,15,13,08,23.10
2016,07,15,13,09,23.10
2016,07,15,13,10,23.10
2016,07,15,13,11,23.10
2016,07,15,13,12,23.20
2016,07,15,13,13,23.20
2016,07,15,13,14,23.30
2016,07,15,13,15,23.30
2016,07,15,13,16,23.40
2016,07,15,13,17,23.40
2016,07,15,13,18,23.50
2016,07,15,13,19,23.50
2016,07,15,13,20,23.40
2016,07,15,13,21,23.40
2016,07,15,13,22,23.50
2016,07,15,13,23,23.60
2016,07,15,13,24,23.70
2016,07,15,13,25,23.80
2016,07,15,13,26,23.80
2016,07,15,13,27,23.90
2016,07,15,13,28,23.80
2016,07,15,13,29,23.80
2016,07,15,13,30,23.80
2016,07,15,13,31,23.80
2016,07,15,13,32,23.80
2016,07,15,13,33,23.80
2016,07,15,13,34,23.80
2016,07,15,13,35,23.90
2016,07,15,13,36,23.90
2016,07,15,13,37,24.00
2016,07,15,13,38,24.10
2016,07,15,13,39,24.10
2016,07,15,13,40,24.10
2016,07,15,13,41,24.00
2016,07,15,13,42,23.90
2016,07,15,13,43,23.90
2016,07,15,13,44,23.80
2016,07,15,13,45,23.80
2016,07,15,13,46,23.90
2016,07,15,13,47,23.90
2016,07,15,13,48,23.90
2016,07,15,13,49,23.90
2016,07,15,13,50,23.90
2016,07,15,13,51,23.90
2016,07,15,13,52,23.90
2016,07,15,13,53,23.90
2016,07,15,13,54,23.90
2016,07,15,13,55,23.90
2016,07,15,13,56,23.90
2016,07,15,13,57,23.90
2016,07,15,13,58,23.90
2016,07,15,13,59,23.90
2016,07,15,14,00,23.90
2016,07,15,14,01,23.80
2016,07,15,14,02,23.80
2016,07,15,14,03,23.90
2016,07,15,14,04,23.90
2016,07,15,14,05,23.90
2016,07,15,14,06,24.00
2016,07,15,14,07,24.10
2016,07,15,14,08,24.20
2016,07,15,14,09,24.20
2016,07,15,14,10,24.20
2016,07,15,14,11,24.20
2016,07,15,14,12,24.20
2016,07,15,14,13,24.20
2016,07,15,14,14,24.20
2016,07,15,14,15,24.30
2016,07,15,14,16,24.30
2016,07,15,14,17,24.20
2016,07,15,14,18,24.20
2016,07,15,14,19,24.20
2016,07,15,14,20,24.30
2016,07,15,14,21,24.30
2016,07,15,14,22,24.40
2016,07,15,14,23,24.40
2016,07,15,14,24,24.60
2016,07,15,14,25,24.70
2016,07,15,14,26,24.80
2016,07,15,14,27,24.80
2016,07,15,14,28,24.80
2016,07,15,14,29,24.80
2016,07,15,14,30,24.80
2016,07,15,14,31,24.70
2016,07,15,14,32,24.70
2016,07,15,14,33,24.70
2016,07,15,14,34,24.70
2016,07,15,14,36,24.80
2016,07,15,14,37,24.80
2016,07,15,14,38,24.90
2016,07,15,14,39,24.90
2016,07,15,14,40,24.90
2016,07,15,14,41,24.90
2016,07,15,14,42,24.90
2016,07,15,14,43,24.90
2016,07,15,14,44,24.80
2016,07,15,14,45,24.80
2016,07,15,14,46,24.80
2016,07,15,14,47,24.70
2016,07,15,14,48,24.60
2016,07,15,14,49,24.60
2016,07,15,14,50,24.60
2016,07,15,14,51,24.50
2016,07,15,14,52,24.50
2016,07,15,14,53,24.60
2016,07,15,14,54,24.60
2016,07,15,14,55,24.60
2016,07,15,14,56,24.60
2016,07,15,14,57,24.60
2016,07,15,14,58,24.60
2016,07,15,14,59,24.60
2016,07,15,15,00,24.40
2016,07,15,15,01,24.40
2016,07,15,15,02,24.40
2016,07,15,15,03,24.40
2016,07,15,15,04,24.50
2016,07,15,15,05,24.50
2016,07,15,15,06,24.40
2016,07,15,15,07,24.40
2016,07,15,15,08,24.40
2016,07,15,15,09,24.40
2016,07,15,15,10,24.40
2016,07,15,15,11,24.40
2016,07,15,15,12,24.50
2016,07,15,15,13,24.40
2016,07,15,15,14,24.30
2016,07,15,15,15,24.30
2016,07,15,15,16,24.40
2016,07,15,15,17,24.40
2016,07,15,15,18,24.60
2016,07,15,15,19,24.60
2016,07,15,15,20,24.70
2016,07,15,15,21,24.70
2016,07,15,15,22,24.60
2016,07,15,15,23,24.60
2016,07,15,15,24,24.60
2016,07,15,15,25,24.70
2016,07,15,15,26,24.70
2016,07,15,15,27,24.70
2016,07,15,15,28,24.80
2016,07,15,15,29,24.80
2016,07,15,15,30,24.80
2016,07,15,15,31,24.80
2016,07,15,15,32,24.80
2016,07,15,15,33,24.80
2016,07,15,15,34,24.80
2016,07,15,15,35,24.70
2016,07,15,15,36,24.70
2016,07,15,15,37,24.70
2016,07,15,15,38,24.70
2016,07,15,15,39,24.70
2016,07,15,15,40,24.60
2016,07,15,15,41,24.60
2016,07,15,15,42,24.60
2016,07,15,15,43,24.60
2016,07,15,15,44,24.50
2016,07,15,15,45,24.50
2016,07,15,15,46,24.50
2016,07,15,15,47,24.60
2016,07,15,15,48,24.60
2016,07,15,15,49,24.60
2016,07,15,15,50,24.60
2016,07,15,15,51,24.60
2016,07,15,15,52,24.60
2016,07,15,15,53,24.50
2016,07,15,15,54,24.50
2016,07,15,15,55,24.50
2016,07,15,15,56,24.50
2016,07,15,15,57,24.50
2016,07,15,15,58,24.50
2016,07,15,15,59,24.40
2016,07,15,16,00,24.40
2016,07,15,16,01,24.50
2016,07,15,16,02,24.50
2016,07,15,16,03,24.60
2016,07,15,16,04,24.50
2016,07,15,16,05,24.50
2016,07,15,16,06,24.50
2016,07,15,16,07,24.60
2016,07,15,16,08,24.60
2016,07,15,16,09,24.60
2016,07,15,16,10,24.60
2016,07,15,16,11,24.60
2016,07,15,16,12,24.60
2016,07,15,16,13,24.50
2016,07,15,16,14,24.50
2016,07,15,16,15,24.50
2016,07,15,16,16,24.50
2016,07,15,16,17,24.60
2016,07,15,16,18,24.60
2016,07,15,16,19,24.60
2016,07,15,16,20,24.60
2016,07,15,16,21,24.60
2016,07,15,16,22,24.60
2016,07,15,16,23,24.50
2016,07,15,16,24,24.50
2016,07,15,16,25,24.60
2016,07,15,16,26,24.60
2016,07,15,16,27,24.60
2016,07,15,16,28,24.60
2016,07,15,16,29,24.60
2016,07,15,16,30,24.60
2016,07,15,16,31,24.40
2016,07,15,16,32,24.30
2016,07,15,16,33,24.10
2016,07,15,16,34,24.10
2016,07,15,16,35,24.00
2016,07,15,16,36,24.10
2016,07,15,16,37,24.10
2016,07,15,16,38,24.20
2016,07,15,16,39,24.20
2016,07,15,16,40,24.20
2016,07,15,16,41,24.20
2016,07,15,16,42,24.20
2016,07,15,16,43,24.20
2016,07,15,16,44,24.20
2016,07,15,16,45,24.30
2016,07,15,16,46,24.30
2016,07,15,16,47,24.30
2016,07,15,16,48,24.30
2016,07,15,16,49,24.40
2016,07,15,16,50,24.40
2016,07,15,16,51,24.40
2016,07,15,16,52,24.40
2016,07,15,16,53,24.40
2016,07,15,16,54,24.30
2016,07,15,16,55,24.30
2016,07,15,16,56,24.30
2016,07,15,16,57,24.20
2016,07,15,16,58,24.20
2016,07,15,16,59,24.20
2016,07,15,17,00,24.10
2016,07,15,17,01,24.00
2016,07,15,17,02,24.00
2016,07,15,17,03,24.10
2016,07,15,17,04,24.10
2016,07,15,17,05,24.00
2016,07,15,17,06,24.00
2016,07,15,17,07,23.90
2016,07,15,17,08,23.90
2016,07,15,17,09,23.90
2016,07,15,17,10,23.80
2016,07,15,17,11,23.80
2016,07,15,17,12,23.80
2016,07,15,17,13,23.80
2016,07,15,17,14,23.80
2016,07,15,17,15,23.80
2016,07,15,17,16,23.80
2016,07,15,17,17,23.80
2016,07,15,17,18,23.80
2016,07,15,17,19,23.80
2016,07,15,17,20,23.90